{"data":{"norad_id":29236,"intl_designator":"2006-023A","name":"GALAXY 16 (G-16)","alt_names":[],"object_type":"PAYLOAD","status":"ACTIVE","operator":null,"country":"US","launch_date":"2006-06-18","launch_site_code":"SEAL","launch_vehicle":null,"mission":null,"orbit_class":"UNKNOWN","rcs_meters":251.785,"size_class":null,"mass_kg":null,"dimensions":null,"purposes":["comms"],"wikipedia_slug":null,"has_3d_model":false,"image_url":null,"decayed_at":null,"tle_current":{"epoch":"2026-05-25T03:16:25.517280Z","epoch_age_seconds":59228,"freshness":"FRESH","line1":"1 29236U 06023A   26145.13640645 -.00000129  00000+0  00000+0 0  9991","line2":"2 29236   0.0627 105.9902 0002644 314.1429 132.7071  1.00272223 72745","mean_motion":1.00272223,"eccentricity":0.0002644,"inclination_deg":0.0627,"raan_deg":105.9902,"arg_perigee_deg":314.1429,"mean_anomaly_deg":132.7071,"bstar":0,"rev_number":7274,"period_min":1436.0906310016,"perigee_km":35775.323851672,"apogee_km":35797.620497003,"semimajor_km":42164.609174338,"source":"CELESTRAK","updated_at":"2026-05-25T13:38:14.325168Z"}}}